User: anonymous   Login
Location: �chenoz-la-M�line
(47.6009°N, 6.1354°E)
Time: 07:30:29
(UTC+00:00)
Language:

ERS-2 - Orbit

View from above orbital plane
View from above orbital plane
View from above satellite
View from above satellite

Ground track
Ground track

The orbit data is extracted from the following two-line orbital elements,

1 23560U 95021A   21109.17220067  .00001493  00000-0  65705-4 0  9995
2 23560  98.5539 311.0632 0002965 189.2081 170.9098 15.23831097388691
Epoch (UTC): 19 April 2021 04:07:58
Eccentricity: 0.0002965
inclination: 98.5539°
perigee height: 492 km
apogee height: 496 km
right ascension of ascending node: 311.0632°
argument of perigee: 189.2081°
revolutions per day: 15.23831097
mean anomaly at epoch: 170.9098°
orbit number at epoch: 38869

The dashed part of the orbit path shows where the satellite is in the earth's shadow,  

DLR